Flag for Mexico

Past Weather in 25°41'54"N, 100°16'04"W, Mexico — Yesterday and Last 2 Weeks

Now
64 °F

Passing clouds.


Feels Like: 64 °F
Forecast: 67 / 57 °F
Wind: 12 mph from North

Location: Aerop. Internacional Monterrey - N. L.
Current Time: Oct 27, 2020 at 12:30:07 am
Latest Report: Oct 26, 2020 at 11:40 pm
Visibility: 10 mi
Pressure29.94 "Hg
Humidity: 60%
Dew Point: 50 °F
Location of 25°41'54"N, 100°16'04"WLocation

Past Weather in 25°41'54"N, 100°16'04"W — Graph

°F

25°41'54"N, 100°16'04"W Temperature Yesterday

Maximum temperature yesterday: 86 °F (at 2:40 pm)
Minimum temperature yesterday: 66 °F (at 10:45 pm)
Average temperature yesterday: 77 °F

High & Low Weather Summary for the Past Weeks

 TemperatureHumidityPressure
High97 °F (Oct 15, 3:40 pm)100% (Oct 14, 7:52 am)30.27 "Hg (Oct 14, 7:52 am)
Low55 °F (Oct 17, 6:59 am)23% (Oct 15, 3:40 pm)29.81 "Hg (Oct 26, 3:40 pm)
Average77 °F62%30.01 "Hg
* Reported Oct 11 11:40 pm — Oct 26 10:45 pm, 25°41'54"N, 100°16'04"W. Weather by CustomWeather, © 2020

Note: Actual official high and low records may vary slightly from our data, if they occured in-between our weather recording intervals... More about our weather records

25°41'54"N, 100°16'04"W Weather History for the Previous 24 Hours

Scroll right to see more
 ConditionsComfort  
Time TempWeatherWind HumidityBarometerVisibility
10:45 pm
Mon, Oct 26
66 °FPassing clouds.14 mph56%29.95 "Hg10 mi
9:45 pm70 °FPassing clouds.13 mph50%29.93 "Hg10 mi
8:40 pm75 °FPassing clouds.7 mph50%29.89 "Hg10 mi
7:40 pm79 °FClear.No wind54%29.85 "Hg15 mi
6:40 pm82 °FPassing clouds.3 mph48%29.83 "Hg15 mi
5:40 pm84 °FScattered clouds.9 mph48%29.82 "Hg10 mi
4:40 pm86 °FScattered clouds.5 mph49%29.82 "Hg10 mi
3:40 pm86 °FPassing clouds.8 mph46%29.81 "Hg10 mi
2:40 pm86 °FPassing clouds.No wind49%29.82 "Hg10 mi
1:40 pm84 °FPassing clouds.No wind55%29.85 "Hg6 mi
12:40 pm82 °FPassing clouds.6 mph55%29.88 "Hg6 mi
11:40 am82 °FScattered clouds.2 mph58%29.91 "Hg5 mi
10:40 am79 °FBroken clouds.3 mph65%29.92 "Hg5 mi
9:40 am73 °FPartly sunny.2 mph78%29.92 "Hg3 mi
9:19 am73 °FMostly cloudy.2 mph83%29.92 "Hg3 mi
8:40 am72 °FMostly cloudy.3 mph94%29.91 "Hg5 mi
7:40 am70 °FPartly sunny.3 mph100%29.89 "Hg5 mi
7:22 am70 °FPartly sunny.No wind100%29.88 "Hg5 mi
6:40 am70 °FPassing clouds.5 mph94%29.87 "Hg5 mi
6:24 am70 °FPassing clouds.5 mph94%29.86 "Hg5 mi
Weather by CustomWeather, © 2020

See weather overview